STARLINK-37632, 69374

Orbit data source: Space-Track

STARLINK-37632, 69374 is a payload satellite owned by SpaceX/Seattle (US) in LEO that was launched on Thu, 04 Jun 2026 UTC via an FALCON 9 launch vehicle from the Air Force Eastern Test Range (AFETR). Payload-class satellites include a variety of spacecraft equipped with specific instruments for various scientific and technological missions. These include communications satellites like Starlink; space stations such as the ISS; scientific satellites like the Hubble; Earth observation satellites from companies like Planet Labs, Umbra, and HawkEye 360; GPS; miniature CubeSats for education and research; and military/defense satellites.

Loading next visibility...
Identifier
69374, 2026-123X
Orbit
LEO
Country
Flag of USUS
Related business
Manufacturer
SpaceX/Seattle
Mission
Operational spacecraft
Bus & Motor
STARLINK V2MO, Unknown motor
Mass
575 kg wet, ~530 kg dry
Launch date (UTC)
2026-06-04 (2 months ago)
Launch vehicle
FALCON 9
Launch site
Air Force Eastern Test Range (AFETR)
Object type
Payload
Rocket body
Debris
Shape & HBR
Unknown shape, 17.7 m
Radar Cross Section
Large (>1 m²)

Expand to show TLE details & history
Last TLE update: 13 hours ago

TLE from 13 hours ago
0 STARLINK-37632
1 69374U 26123X   26202.13680445 -.00417444  00000-0 -23054-2 0  9998
2 69374  53.1570  71.0997 0001134 201.0909 159.0067 15.80006759  7416
Epoch: 2026-07-21T03:16Z
TLE epoch observation values (Epoch: 2026-07-21T03:16:59.904Z)
Latitude
-0°
Longitude
82.93928°
Altitude
332.05 km
Speed
7.71 km/s
True Right ascension
04h 44m 23s
True Declination
0° 00' 00"
Sunlit
Object was in daylight at epoch
Visualization orbit readout
Latitude
Unknown
Longitude
Unknown
Altitude
Unknown
Speed
Unknown
Apparent Right ascension
Unknown
Apparent Declination
Unknown
Sunlit
N/A
Visualization observer readout
Local Sidereal Time
05:08:33
Azimuth
Unknown
Elevation
Unknown
Doppler factor
Unknown
Orbital elements
Apogee altitude
331.445 km
Perigee altitude
329.923 km
Semi-major axis
6,708.821 km
Eccentricity
0.00011
Inclination
53.157°
RAAN
71.0997°
Arg. of periapsis
201.0909°
True anomaly
159.01135°
Mean anomaly
159.0067°
Eccentric anomaly
159.00903°
Mean motion
3.94979 °/min
Orbital period
91.14 mins
BSTAR
-0.0023054
Loading maneuver chart data...
Computing Atmospheric mass density...
Loading historical data...
Loading historical data...
Loading historical data...
Loading historical data...
Loading historical data...
Loading historical data...
Loading historical data...

Documentation

Showing up to 5 results
|